Time,TemperatureF,DewpointF,PressureIn,WindDirection,WindDirectionDegrees,WindSpeedMPH,WindSpeedGustMPH,Humidity,HourlyPrecipIn,Conditions,Clouds,dailyrainin,SoftwareType,DateUTC
2013-10-03 00:01:00,40.0,32.0,27.07,West,270,0.0,0.0,73,0.00,,,0.00,Rainwise IP-100,2013-10-03 06:01:00,
2013-10-03 00:03:00,39.0,32.0,27.07,West,270,0.0,0.0,73,0.00,,,0.00,Rainwise IP-100,2013-10-03 06:03:00,
2013-10-03 00:08:00,39.0,32.0,27.07,West,270,0.0,0.0,74,0.00,,,0.00,Rainwise IP-100,2013-10-03 06:08:00,
2013-10-03 00:13:00,39.0,32.0,27.07,West,270,0.0,0.0,76,0.00,,,0.00,Rainwise IP-100,2013-10-03 06:13:00,
2013-10-03 00:18:00,38.0,32.0,27.08,West,270,0.0,0.0,77,0.00,,,0.00,Rainwise IP-100,2013-10-03 06:18:00,
2013-10-03 00:23:00,38.0,32.0,27.08,West,270,0.0,0.0,80,0.00,,,0.00,Rainwise IP-100,2013-10-03 06:23:00,
2013-10-03 00:28:00,37.0,32.0,27.07,West,270,0.0,0.0,81,0.00,,,0.00,Rainwise IP-100,2013-10-03 06:28:00,
2013-10-03 00:33:00,37.0,32.0,27.07,West,270,1.0,2.0,83,0.00,,,0.00,Rainwise IP-100,2013-10-03 06:33:00,
2013-10-03 00:38:00,38.0,33.0,27.07,West,270,0.0,1.0,82,0.00,,,0.00,Rainwise IP-100,2013-10-03 06:38:00,
2013-10-03 00:43:00,38.0,33.0,27.07,ENE,67,0.0,3.0,81,0.00,,,0.00,Rainwise IP-100,2013-10-03 06:43:00,
2013-10-03 00:48:00,38.0,32.0,27.07,ENE,67,0.0,0.0,80,0.00,,,0.00,Rainwise IP-100,2013-10-03 06:48:00,
2013-10-03 00:53:00,38.0,33.0,27.07,ENE,67,0.0,0.0,81,0.00,,,0.00,Rainwise IP-100,2013-10-03 06:53:00,
2013-10-03 00:58:00,38.0,32.0,27.06,ENE,67,0.0,1.0,80,0.00,,,0.00,Rainwise IP-100,2013-10-03 06:58:00,
2013-10-03 01:03:00,38.0,32.0,27.06,SE,135,2.0,3.0,80,0.00,,,0.00,Rainwise IP-100,2013-10-03 07:03:00,
2013-10-03 01:08:00,38.0,32.0,27.07,ESE,112,0.0,2.0,79,0.00,,,0.00,Rainwise IP-100,2013-10-03 07:08:00,
2013-10-03 01:13:00,38.0,32.0,27.07,East,90,0.0,3.0,79,0.00,,,0.00,Rainwise IP-100,2013-10-03 07:13:00,
2013-10-03 01:18:00,38.0,32.0,27.07,SE,135,0.0,2.0,78,0.00,,,0.00,Rainwise IP-100,2013-10-03 07:18:00,
2013-10-03 01:23:00,38.0,32.0,27.07,SE,135,0.0,0.0,79,0.00,,,0.00,Rainwise IP-100,2013-10-03 07:23:00,
2013-10-03 01:28:00,38.0,32.0,27.07,SE,135,1.0,2.0,80,0.00,,,0.00,Rainwise IP-100,2013-10-03 07:28:00,
2013-10-03 01:33:00,38.0,32.0,27.07,East,90,0.0,2.0,80,0.00,,,0.00,Rainwise IP-100,2013-10-03 07:33:00,
2013-10-03 01:38:00,38.0,32.0,27.07,East,90,0.0,2.0,80,0.00,,,0.00,Rainwise IP-100,2013-10-03 07:38:00,
2013-10-03 01:43:00,38.0,33.0,27.07,East,90,1.0,2.0,81,0.00,,,0.00,Rainwise IP-100,2013-10-03 07:43:00,
2013-10-03 01:48:00,38.0,32.0,27.07,East,90,0.0,2.0,80,0.00,,,0.00,Rainwise IP-100,2013-10-03 07:48:00,
2013-10-03 01:53:00,38.0,32.0,27.07,East,90,0.0,0.0,80,0.00,,,0.00,Rainwise IP-100,2013-10-03 07:53:00,
2013-10-03 01:58:00,38.0,32.0,27.07,East,90,0.0,0.0,80,0.00,,,0.00,Rainwise IP-100,2013-10-03 07:58:00,
2013-10-03 02:03:00,38.0,33.0,27.07,East,90,1.0,2.0,81,0.00,,,0.00,Rainwise IP-100,2013-10-03 08:03:00,
2013-10-03 02:08:00,38.0,32.0,27.08,East,90,0.0,2.0,80,0.00,,,0.00,Rainwise IP-100,2013-10-03 08:08:00,
2013-10-03 02:13:00,38.0,32.0,27.08,East,90,0.0,0.0,80,0.00,,,0.00,Rainwise IP-100,2013-10-03 08:13:00,
2013-10-03 02:18:00,38.0,32.0,27.08,East,90,0.0,0.0,79,0.00,,,0.00,Rainwise IP-100,2013-10-03 08:18:00,
2013-10-03 02:23:00,38.0,33.0,27.08,East,90,0.0,0.0,81,0.00,,,0.00,Rainwise IP-100,2013-10-03 08:23:00,
2013-10-03 02:28:00,38.0,32.0,27.09,East,90,0.0,0.0,80,0.00,,,0.00,Rainwise IP-100,2013-10-03 08:28:00,
2013-10-03 02:33:00,38.0,33.0,27.09,East,90,0.0,1.0,81,0.00,,,0.00,Rainwise IP-100,2013-10-03 08:33:00,
2013-10-03 02:38:00,38.0,33.0,27.09,East,90,0.0,0.0,81,0.00,,,0.00,Rainwise IP-100,2013-10-03 08:38:00,
2013-10-03 02:43:00,38.0,33.0,27.09,East,90,0.0,0.0,81,0.00,,,0.00,Rainwise IP-100,2013-10-03 08:43:00,
2013-10-03 02:48:00,39.0,33.0,27.08,SW,225,0.0,3.0,81,0.00,,,0.00,Rainwise IP-100,2013-10-03 08:48:00,
2013-10-03 02:53:00,39.0,33.0,27.08,ENE,67,0.0,4.0,81,0.00,,,0.00,Rainwise IP-100,2013-10-03 08:53:00,
2013-10-03 02:58:00,39.0,33.0,27.09,WNW,292,0.0,4.0,80,0.00,,,0.00,Rainwise IP-100,2013-10-03 08:58:00,
2013-10-03 03:03:00,39.0,33.0,27.09,WNW,292,0.0,2.0,80,0.00,,,0.00,Rainwise IP-100,2013-10-03 09:03:00,
2013-10-03 03:08:00,39.0,33.0,27.08,WNW,292,0.0,0.0,80,0.00,,,0.00,Rainwise IP-100,2013-10-03 09:08:00,
2013-10-03 03:13:00,39.0,35.0,27.08,WNW,292,3.0,4.0,82,0.00,,,0.00,Rainwise IP-100,2013-10-03 09:13:00,
2013-10-03 03:18:00,39.0,33.0,27.08,WSW,247,0.0,4.0,81,0.00,,,0.00,Rainwise IP-100,2013-10-03 09:18:00,
2013-10-03 03:23:00,39.0,33.0,27.08,West,270,0.0,5.0,81,0.00,,,0.00,Rainwise IP-100,2013-10-03 09:23:00,
2013-10-03 03:28:00,39.0,35.0,27.08,East,90,0.0,2.0,82,0.00,,,0.00,Rainwise IP-100,2013-10-03 09:28:00,
2013-10-03 03:33:00,39.0,35.0,27.08,East,90,0.0,1.0,82,0.00,,,0.00,Rainwise IP-100,2013-10-03 09:33:00,
2013-10-03 03:38:00,39.0,33.0,27.08,East,90,0.0,0.0,81,0.00,,,0.00,Rainwise IP-100,2013-10-03 09:38:00,
2013-10-03 03:43:00,39.0,35.0,27.08,South,180,0.0,4.0,83,0.00,,,0.00,Rainwise IP-100,2013-10-03 09:43:00,
2013-10-03 03:48:00,39.0,33.0,27.09,South,180,0.0,2.0,81,0.00,,,0.00,Rainwise IP-100,2013-10-03 09:48:00,
2013-10-03 03:53:00,39.0,35.0,27.09,South,180,0.0,0.0,82,0.00,,,0.00,Rainwise IP-100,2013-10-03 09:53:00,
2013-10-03 03:58:00,39.0,33.0,27.09,NW,315,0.0,2.0,81,0.00,,,0.00,Rainwise IP-100,2013-10-03 09:58:00,
2013-10-03 04:03:00,39.0,35.0,27.09,East,90,0.0,4.0,83,0.00,,,0.00,Rainwise IP-100,2013-10-03 10:03:00,
2013-10-03 04:08:00,39.0,33.0,27.09,North,360,5.0,6.0,78,0.00,,,0.00,Rainwise IP-100,2013-10-03 10:08:00,
2013-10-03 04:13:00,40.0,33.0,27.09,West,270,5.0,6.0,75,0.00,,,0.00,Rainwise IP-100,2013-10-03 10:13:00,
2013-10-03 04:18:00,40.0,33.0,27.08,North,360,6.0,6.0,74,0.00,,,0.00,Rainwise IP-100,2013-10-03 10:18:00,
2013-10-03 04:23:00,40.0,32.0,27.08,North,360,1.0,6.0,73,0.00,,,0.00,Rainwise IP-100,2013-10-03 10:23:00,
2013-10-03 04:28:00,40.0,32.0,27.09,NE,45,2.0,7.0,73,0.00,,,0.00,Rainwise IP-100,2013-10-03 10:28:00,
2013-10-03 04:33:00,40.0,32.0,27.09,NNW,337,0.0,2.0,73,0.00,,,0.00,Rainwise IP-100,2013-10-03 10:33:00,
2013-10-03 04:38:00,40.0,32.0,27.09,NE,45,0.0,2.0,73,0.00,,,0.00,Rainwise IP-100,2013-10-03 10:38:00,
2013-10-03 04:43:00,40.0,32.0,27.09,SW,225,1.0,3.0,73,0.00,,,0.00,Rainwise IP-100,2013-10-03 10:43:00,
2013-10-03 04:48:00,40.0,32.0,27.10,WSW,247,1.0,5.0,71,0.00,,,0.00,Rainwise IP-100,2013-10-03 10:48:00,
2013-10-03 04:53:00,40.0,32.0,27.10,SE,135,1.0,3.0,73,0.00,,,0.00,Rainwise IP-100,2013-10-03 10:53:00,
2013-10-03 04:58:00,40.0,32.0,27.10,SE,135,0.0,1.0,72,0.00,,,0.00,Rainwise IP-100,2013-10-03 10:58:00,
2013-10-03 05:03:00,40.0,32.0,27.10,SE,135,0.0,0.0,73,0.00,,,0.00,Rainwise IP-100,2013-10-03 11:03:00,
2013-10-03 05:08:00,40.0,32.0,27.10,SE,135,0.0,0.0,73,0.00,,,0.00,Rainwise IP-100,2013-10-03 11:08:00,
2013-10-03 05:13:00,40.0,32.0,27.10,WNW,292,3.0,6.0,73,0.00,,,0.00,Rainwise IP-100,2013-10-03 11:13:00,
2013-10-03 05:18:00,40.0,32.0,27.11,WNW,292,2.0,4.0,73,0.00,,,0.00,Rainwise IP-100,2013-10-03 11:18:00,
2013-10-03 05:23:00,40.0,32.0,27.11,WSW,247,2.0,4.0,73,0.00,,,0.00,Rainwise IP-100,2013-10-03 11:23:00,
2013-10-03 05:28:00,40.0,32.0,27.11,SW,225,1.0,4.0,73,0.00,,,0.00,Rainwise IP-100,2013-10-03 11:28:00,
2013-10-03 05:33:00,40.0,33.0,27.11,ENE,67,3.0,5.0,74,0.00,,,0.00,Rainwise IP-100,2013-10-03 11:33:00,
2013-10-03 05:38:00,40.0,33.0,27.11,WSW,247,2.0,5.0,74,0.00,,,0.00,Rainwise IP-100,2013-10-03 11:38:00,
2013-10-03 05:43:00,40.0,32.0,27.11,SW,225,0.0,4.0,73,0.00,,,0.00,Rainwise IP-100,2013-10-03 11:43:00,
2013-10-03 05:48:00,40.0,32.0,27.11,West,270,4.0,4.0,73,0.00,,,0.00,Rainwise IP-100,2013-10-03 11:48:00,
2013-10-03 05:53:00,40.0,33.0,27.11,West,270,4.0,5.0,75,0.00,,,0.00,Rainwise IP-100,2013-10-03 11:53:00,
2013-10-03 05:58:00,40.0,33.0,27.11,North,360,2.0,7.0,75,0.00,,,0.00,Rainwise IP-100,2013-10-03 11:58:00,
2013-10-03 06:03:00,40.0,33.0,27.11,ESE,112,0.0,3.0,76,0.00,,,0.00,Rainwise IP-100,2013-10-03 12:03:00,
2013-10-03 06:08:00,40.0,33.0,27.12,WSW,247,3.0,6.0,75,0.00,,,0.00,Rainwise IP-100,2013-10-03 12:08:00,
2013-10-03 06:13:00,40.0,33.0,27.12,WNW,292,2.0,5.0,75,0.00,,,0.00,Rainwise IP-100,2013-10-03 12:13:00,
2013-10-03 06:18:00,40.0,33.0,27.12,WNW,292,0.0,3.0,75,0.00,,,0.00,Rainwise IP-100,2013-10-03 12:18:00,
2013-10-03 06:23:00,39.0,32.0,27.12,WNW,292,0.0,0.0,76,0.00,,,0.00,Rainwise IP-100,2013-10-03 12:23:00,
2013-10-03 06:28:00,40.0,33.0,27.12,SE,135,3.0,3.0,76,0.00,,,0.00,Rainwise IP-100,2013-10-03 12:28:00,
2013-10-03 06:33:00,39.0,33.0,27.12,ENE,67,4.0,5.0,78,0.00,,,0.00,Rainwise IP-100,2013-10-03 12:33:00,
2013-10-03 06:38:00,40.0,33.0,27.13,NNW,337,3.0,5.0,75,0.00,,,0.00,Rainwise IP-100,2013-10-03 12:38:00,
2013-10-03 06:43:00,40.0,33.0,27.13,NNE,22,2.0,6.0,76,0.00,,,0.00,Rainwise IP-100,2013-10-03 12:43:00,
2013-10-03 06:48:00,40.0,33.0,27.13,North,360,3.0,4.0,76,0.00,,,0.00,Rainwise IP-100,2013-10-03 12:48:00,
2013-10-03 06:53:00,39.0,32.0,27.13,WNW,292,2.0,3.0,76,0.00,,,0.00,Rainwise IP-100,2013-10-03 12:53:00,
2013-10-03 06:58:00,40.0,33.0,27.13,NW,315,0.0,6.0,76,0.00,,,0.00,Rainwise IP-100,2013-10-03 12:58:00,
2013-10-03 07:03:00,39.0,32.0,27.13,North,360,1.0,3.0,77,0.00,,,0.00,Rainwise IP-100,2013-10-03 13:03:00,
2013-10-03 07:08:00,40.0,33.0,27.13,ESE,112,0.0,3.0,76,0.00,,,0.00,Rainwise IP-100,2013-10-03 13:08:00,
2013-10-03 07:13:00,39.0,32.0,27.13,ESE,112,0.0,0.0,77,0.00,,,0.00,Rainwise IP-100,2013-10-03 13:13:00,
2013-10-03 07:18:00,40.0,33.0,27.14,ESE,112,0.0,0.0,76,0.00,,,0.00,Rainwise IP-100,2013-10-03 13:18:00,
2013-10-03 07:23:00,39.0,33.0,27.14,WNW,292,1.0,2.0,78,0.00,,,0.00,Rainwise IP-100,2013-10-03 13:23:00,
2013-10-03 07:28:00,39.0,32.0,27.15,NW,315,0.0,2.0,77,0.00,,,0.00,Rainwise IP-100,2013-10-03 13:28:00,
2013-10-03 07:33:00,39.0,33.0,27.15,SE,135,0.0,3.0,78,0.00,,,0.00,Rainwise IP-100,2013-10-03 13:33:00,
2013-10-03 07:38:00,40.0,33.0,27.15,SE,135,0.0,2.0,77,0.00,,,0.00,Rainwise IP-100,2013-10-03 13:38:00,
2013-10-03 07:43:00,39.0,32.0,27.15,NNW,337,0.0,3.0,77,0.00,,,0.00,Rainwise IP-100,2013-10-03 13:43:00,
2013-10-03 07:48:00,40.0,33.0,27.15,NNW,337,3.0,7.0,75,0.00,,,0.00,Rainwise IP-100,2013-10-03 13:48:00,
2013-10-03 07:53:00,40.0,33.0,27.15,WNW,292,3.0,4.0,75,0.00,,,0.00,Rainwise IP-100,2013-10-03 13:53:00,
2013-10-03 07:58:00,40.0,33.0,27.15,NNW,337,3.0,7.0,74,0.00,,,0.00,Rainwise IP-100,2013-10-03 13:58:00,
2013-10-03 08:03:00,40.0,33.0,27.15,WNW,292,3.0,6.0,75,0.00,,,0.00,Rainwise IP-100,2013-10-03 14:03:00,
2013-10-03 08:08:00,40.0,32.0,27.16,NNE,22,2.0,8.0,73,0.00,,,0.00,Rainwise IP-100,2013-10-03 14:08:00,
2013-10-03 08:13:00,40.0,33.0,27.16,WNW,292,2.0,5.0,74,0.00,,,0.00,Rainwise IP-100,2013-10-03 14:13:00,
2013-10-03 08:18:00,40.0,32.0,27.17,WNW,292,2.0,6.0,73,0.00,,,0.00,Rainwise IP-100,2013-10-03 14:18:00,
2013-10-03 08:23:00,40.0,33.0,27.17,WNW,292,3.0,3.0,74,0.00,,,0.00,Rainwise IP-100,2013-10-03 14:23:00,
2013-10-03 08:28:00,40.0,32.0,27.17,West,270,0.0,6.0,73,0.00,,,0.00,Rainwise IP-100,2013-10-03 14:28:00,
2013-10-03 08:33:00,40.0,33.0,27.17,WNW,292,0.0,5.0,75,0.00,,,0.00,Rainwise IP-100,2013-10-03 14:33:00,
2013-10-03 08:38:00,40.0,33.0,27.17,NNE,22,0.0,2.0,75,0.00,,,0.00,Rainwise IP-100,2013-10-03 14:38:00,
2013-10-03 08:43:00,40.0,33.0,27.17,NE,45,0.0,2.0,75,0.00,,,0.00,Rainwise IP-100,2013-10-03 14:43:00,
2013-10-03 08:48:00,40.0,33.0,27.17,SSW,202,4.0,5.0,75,0.00,,,0.00,Rainwise IP-100,2013-10-03 14:48:00,
2013-10-03 08:53:00,40.0,33.0,27.17,WSW,247,1.0,5.0,75,0.00,,,0.00,Rainwise IP-100,2013-10-03 14:53:00,
2013-10-03 08:58:00,40.0,33.0,27.18,SW,225,3.0,4.0,74,0.00,,,0.00,Rainwise IP-100,2013-10-03 14:58:00,
2013-10-03 09:03:00,40.0,33.0,27.18,NW,315,2.0,3.0,74,0.00,,,0.00,Rainwise IP-100,2013-10-03 15:03:00,
2013-10-03 09:08:00,41.0,33.0,27.18,WSW,247,0.0,5.0,73,0.00,,,0.00,Rainwise IP-100,2013-10-03 15:08:00,
2013-10-03 09:13:00,40.0,33.0,27.18,WSW,247,0.0,0.0,74,0.00,,,0.00,Rainwise IP-100,2013-10-03 15:13:00,
2013-10-03 09:18:00,41.0,33.0,27.19,ESE,112,2.0,3.0,73,0.00,,,0.00,Rainwise IP-100,2013-10-03 15:18:00,
2013-10-03 09:23:00,41.0,33.0,27.19,SSW,202,3.0,4.0,73,0.00,,,0.00,Rainwise IP-100,2013-10-03 15:23:00,
2013-10-03 09:28:00,41.0,33.0,27.19,SSE,157,4.0,5.0,72,0.00,,,0.00,Rainwise IP-100,2013-10-03 15:28:00,
2013-10-03 09:33:00,41.0,33.0,27.19,SSE,157,2.0,5.0,72,0.00,,,0.00,Rainwise IP-100,2013-10-03 15:33:00,
2013-10-03 09:38:00,41.0,33.0,27.20,SSW,202,0.0,3.0,72,0.00,,,0.00,Rainwise IP-100,2013-10-03 15:38:00,
2013-10-03 09:43:00,41.0,33.0,27.20,SSW,202,0.0,1.0,73,0.00,,,0.00,Rainwise IP-100,2013-10-03 15:43:00,
2013-10-03 09:48:00,41.0,32.0,27.20,WSW,247,2.0,2.0,71,0.00,,,0.00,Rainwise IP-100,2013-10-03 15:48:00,
2013-10-03 09:53:00,41.0,33.0,27.20,WSW,247,0.0,3.0,73,0.00,,,0.00,Rainwise IP-100,2013-10-03 15:53:00,
2013-10-03 09:58:00,41.0,33.0,27.20,WSW,247,0.0,0.0,72,0.00,,,0.00,Rainwise IP-100,2013-10-03 15:58:00,
2013-10-03 10:03:00,41.0,33.0,27.20,WSW,247,0.0,1.0,72,0.00,,,0.00,Rainwise IP-100,2013-10-03 16:03:00,
2013-10-03 10:08:00,42.0,33.0,27.21,WSW,247,0.0,0.0,72,0.00,,,0.00,Rainwise IP-100,2013-10-03 16:08:00,
2013-10-03 10:13:00,42.0,33.0,27.21,SSE,157,2.0,4.0,71,0.00,,,0.00,Rainwise IP-100,2013-10-03 16:13:00,
2013-10-03 10:18:00,42.0,33.0,27.21,SSE,157,0.0,5.0,70,0.00,,,0.00,Rainwise IP-100,2013-10-03 16:18:00,
2013-10-03 10:23:00,43.0,35.0,27.21,WNW,292,2.0,4.0,71,0.00,,,0.00,Rainwise IP-100,2013-10-03 16:23:00,
2013-10-03 10:28:00,43.0,35.0,27.21,WNW,292,0.0,3.0,70,0.00,,,0.00,Rainwise IP-100,2013-10-03 16:28:00,
2013-10-03 10:33:00,43.0,33.0,27.21,ENE,67,1.0,2.0,69,0.00,,,0.00,Rainwise IP-100,2013-10-03 16:33:00,
2013-10-03 10:38:00,44.0,33.0,27.22,ENE,67,0.0,3.0,67,0.00,,,0.00,Rainwise IP-100,2013-10-03 16:38:00,
2013-10-03 10:43:00,44.0,33.0,27.22,ENE,67,0.0,1.0,67,0.00,,,0.00,Rainwise IP-100,2013-10-03 16:43:00,
2013-10-03 10:48:00,45.0,33.0,27.23,NE,45,2.0,2.0,64,0.00,,,0.00,Rainwise IP-100,2013-10-03 16:48:00,
2013-10-03 10:53:00,45.0,35.0,27.23,SSE,157,0.0,4.0,65,0.00,,,0.00,Rainwise IP-100,2013-10-03 16:53:00,
2013-10-03 10:58:00,45.0,33.0,27.23,East,90,0.0,4.0,64,0.00,,,0.00,Rainwise IP-100,2013-10-03 16:58:00,
2013-10-03 11:03:00,45.0,33.0,27.23,NE,45,4.0,7.0,62,0.00,,,0.00,Rainwise IP-100,2013-10-03 17:03:00,
2013-10-03 11:08:00,45.0,31.0,27.23,West,270,7.0,9.0,58,0.00,,,0.00,Rainwise IP-100,2013-10-03 17:08:00,
2013-10-03 11:13:00,46.0,32.0,27.23,NNW,337,1.0,8.0,57,0.00,,,0.00,Rainwise IP-100,2013-10-03 17:13:00,
2013-10-03 11:18:00,46.0,31.0,27.23,NNW,337,9.0,11.0,54,0.00,,,0.00,Rainwise IP-100,2013-10-03 17:18:00,
2013-10-03 11:23:00,46.0,31.0,27.23,WSW,247,1.0,11.0,56,0.00,,,0.00,Rainwise IP-100,2013-10-03 17:23:00,
2013-10-03 11:28:00,46.0,31.0,27.23,WNW,292,1.0,7.0,55,0.00,,,0.00,Rainwise IP-100,2013-10-03 17:28:00,
2013-10-03 11:33:00,47.0,32.0,27.23,NNW,337,3.0,7.0,55,0.00,,,0.00,Rainwise IP-100,2013-10-03 17:33:00,
2013-10-03 11:38:00,47.0,31.0,27.23,West,270,5.0,10.0,54,0.00,,,0.00,Rainwise IP-100,2013-10-03 17:38:00,
2013-10-03 11:43:00,47.0,32.0,27.23,NW,315,0.0,10.0,55,0.00,,,0.00,Rainwise IP-100,2013-10-03 17:43:00,
2013-10-03 11:48:00,47.0,31.0,27.24,WNW,292,6.0,10.0,53,0.00,,,0.00,Rainwise IP-100,2013-10-03 17:48:00,
2013-10-03 11:53:00,47.0,31.0,27.24,NNW,337,7.0,11.0,52,0.00,,,0.00,Rainwise IP-100,2013-10-03 17:53:00,
2013-10-03 11:58:00,47.0,31.0,27.24,NNW,337,5.0,9.0,52,0.00,,,0.00,Rainwise IP-100,2013-10-03 17:58:00,
2013-10-03 12:03:00,47.0,31.0,27.24,WNW,292,6.0,10.0,52,0.00,,,0.00,Rainwise IP-100,2013-10-03 18:03:00,
2013-10-03 12:08:00,48.0,32.0,27.24,West,270,6.0,10.0,52,0.00,,,0.00,Rainwise IP-100,2013-10-03 18:08:00,
2013-10-03 12:13:00,48.0,31.0,27.24,North,360,6.0,10.0,50,0.00,,,0.00,Rainwise IP-100,2013-10-03 18:13:00,
2013-10-03 12:18:00,48.0,31.0,27.24,West,270,7.0,11.0,50,0.00,,,0.00,Rainwise IP-100,2013-10-03 18:18:00,
2013-10-03 12:23:00,48.0,31.0,27.24,WNW,292,6.0,9.0,50,0.00,,,0.00,Rainwise IP-100,2013-10-03 18:23:00,
2013-10-03 12:28:00,48.0,29.0,27.25,North,360,6.0,13.0,48,0.00,,,0.00,Rainwise IP-100,2013-10-03 18:28:00,
2013-10-03 12:33:00,48.0,29.0,27.25,NNW,337,9.0,13.0,48,0.00,,,0.00,Rainwise IP-100,2013-10-03 18:33:00,
2013-10-03 12:38:00,48.0,29.0,27.25,NW,315,6.0,15.0,48,0.00,,,0.00,Rainwise IP-100,2013-10-03 18:38:00,
2013-10-03 12:43:00,48.0,29.0,27.25,NW,315,11.0,13.0,48,0.00,,,0.00,Rainwise IP-100,2013-10-03 18:43:00,
2013-10-03 12:48:00,49.0,29.0,27.25,NW,315,7.0,12.0,47,0.00,,,0.00,Rainwise IP-100,2013-10-03 18:48:00,
2013-10-03 12:53:00,49.0,29.0,27.25,North,360,6.0,9.0,47,0.00,,,0.00,Rainwise IP-100,2013-10-03 18:53:00,
2013-10-03 12:58:00,50.0,31.0,27.25,NNW,337,4.0,9.0,46,0.00,,,0.00,Rainwise IP-100,2013-10-03 18:58:00,
2013-10-03 13:03:00,50.0,31.0,27.25,NW,315,4.0,10.0,48,0.00,,,0.00,Rainwise IP-100,2013-10-03 19:03:00,
2013-10-03 13:08:00,50.0,31.0,27.25,WNW,292,3.0,8.0,47,0.00,,,0.00,Rainwise IP-100,2013-10-03 19:08:00,
2013-10-03 13:13:00,50.0,31.0,27.25,NNW,337,4.0,9.0,47,0.00,,,0.00,Rainwise IP-100,2013-10-03 19:13:00,
2013-10-03 13:18:00,50.0,28.0,27.26,NNE,22,3.0,9.0,43,0.00,,,0.00,Rainwise IP-100,2013-10-03 19:18:00,
2013-10-03 13:23:00,50.0,28.0,27.26,North,360,1.0,9.0,43,0.00,,,0.00,Rainwise IP-100,2013-10-03 19:23:00,
2013-10-03 13:28:00,51.0,29.0,27.26,WNW,292,4.0,6.0,42,0.00,,,0.00,Rainwise IP-100,2013-10-03 19:28:00,
2013-10-03 13:33:00,51.0,29.0,27.26,NNE,22,8.0,10.0,43,0.00,,,0.00,Rainwise IP-100,2013-10-03 19:33:00,
2013-10-03 13:38:00,50.0,28.0,27.27,NW,315,4.0,12.0,43,0.00,,,0.00,Rainwise IP-100,2013-10-03 19:38:00,
2013-10-03 13:43:00,50.0,29.0,27.27,North,360,4.0,8.0,45,0.00,,,0.00,Rainwise IP-100,2013-10-03 19:43:00,
2013-10-03 13:48:00,50.0,29.0,27.27,NW,315,6.0,13.0,45,0.00,,,0.00,Rainwise IP-100,2013-10-03 19:48:00,
2013-10-03 13:53:00,50.0,28.0,27.27,NNW,337,6.0,10.0,43,0.00,,,0.00,Rainwise IP-100,2013-10-03 19:53:00,
2013-10-03 13:58:00,50.0,29.0,27.27,WSW,247,7.0,9.0,44,0.00,,,0.00,Rainwise IP-100,2013-10-03 19:58:00,
2013-10-03 14:03:00,50.0,28.0,27.28,NNW,337,5.0,10.0,43,0.00,,,0.00,Rainwise IP-100,2013-10-03 20:03:00,
2013-10-03 14:08:00,50.0,28.0,27.28,West,270,7.0,12.0,43,0.00,,,0.00,Rainwise IP-100,2013-10-03 20:08:00,
2013-10-03 14:13:00,50.0,28.0,27.28,NNW,337,7.0,10.0,43,0.00,,,0.00,Rainwise IP-100,2013-10-03 20:13:00,
2013-10-03 14:18:00,50.0,28.0,27.28,NW,315,7.0,9.0,43,0.00,,,0.00,Rainwise IP-100,2013-10-03 20:18:00,
2013-10-03 14:23:00,50.0,28.0,27.28,NNW,337,8.0,11.0,43,0.00,,,0.00,Rainwise IP-100,2013-10-03 20:23:00,
2013-10-03 14:28:00,50.0,28.0,27.28,NW,315,4.0,10.0,43,0.00,,,0.00,Rainwise IP-100,2013-10-03 20:28:00,
2013-10-03 14:33:00,50.0,28.0,27.28,WNW,292,2.0,11.0,43,0.00,,,0.00,Rainwise IP-100,2013-10-03 20:33:00,
2013-10-03 14:38:00,50.0,28.0,27.29,NNW,337,2.0,12.0,43,0.00,,,0.00,Rainwise IP-100,2013-10-03 20:38:00,
2013-10-03 14:43:00,49.0,28.0,27.29,NNW,337,7.0,13.0,44,0.00,,,0.00,Rainwise IP-100,2013-10-03 20:43:00,
2013-10-03 14:48:00,50.0,28.0,27.29,WNW,292,3.0,10.0,43,0.00,,,0.00,Rainwise IP-100,2013-10-03 20:48:00,
2013-10-03 14:53:00,49.0,29.0,27.29,North,360,6.0,10.0,45,0.00,,,0.00,Rainwise IP-100,2013-10-03 20:53:00,
2013-10-03 14:58:00,49.0,28.0,27.30,NW,315,6.0,10.0,44,0.00,,,0.00,Rainwise IP-100,2013-10-03 20:58:00,
2013-10-03 15:03:00,49.0,29.0,27.30,NW,315,4.0,7.0,46,0.00,,,0.00,Rainwise IP-100,2013-10-03 21:03:00,
2013-10-03 15:08:00,50.0,29.0,27.30,North,360,2.0,8.0,44,0.00,,,0.00,Rainwise IP-100,2013-10-03 21:08:00,
2013-10-03 15:13:00,50.0,29.0,27.30,NNE,22,2.0,8.0,45,0.00,,,0.00,Rainwise IP-100,2013-10-03 21:13:00,
2013-10-03 15:18:00,50.0,28.0,27.30,NNW,337,4.0,10.0,43,0.00,,,0.00,Rainwise IP-100,2013-10-03 21:18:00,
2013-10-03 15:23:00,50.0,28.0,27.30,WNW,292,8.0,12.0,42,0.00,,,0.00,Rainwise IP-100,2013-10-03 21:23:00,
2013-10-03 15:28:00,50.0,28.0,27.30,NNW,337,9.0,12.0,43,0.00,,,0.00,Rainwise IP-100,2013-10-03 21:28:00,
2013-10-03 15:33:00,49.0,28.0,27.30,NNW,337,4.0,13.0,42,0.00,,,0.00,Rainwise IP-100,2013-10-03 21:33:00,
2013-10-03 15:38:00,49.0,28.0,27.31,WNW,292,9.0,14.0,44,0.00,,,0.00,Rainwise IP-100,2013-10-03 21:38:00,
2013-10-03 15:43:00,48.0,28.0,27.31,NNW,337,6.0,16.0,43,0.00,,,0.00,Rainwise IP-100,2013-10-03 21:43:00,
2013-10-03 15:48:00,48.0,28.0,27.34,NNW,337,5.0,16.0,45,0.00,,,0.00,Rainwise IP-100,2013-10-03 21:48:00,
2013-10-03 15:53:00,48.0,31.0,27.34,North,360,5.0,11.0,49,0.00,,,0.00,Rainwise IP-100,2013-10-03 21:53:00,
2013-10-03 15:58:00,48.0,29.0,27.32,NW,315,2.0,12.0,47,0.00,,,0.00,Rainwise IP-100,2013-10-03 21:58:00,
2013-10-03 16:03:00,48.0,29.0,27.32,NNW,337,9.0,13.0,47,0.00,,,0.00,Rainwise IP-100,2013-10-03 22:03:00,
2013-10-03 16:08:00,48.0,29.0,27.33,NW,315,4.0,13.0,48,0.00,,,0.00,Rainwise IP-100,2013-10-03 22:08:00,
2013-10-03 16:13:00,48.0,29.0,27.33,WNW,292,8.0,12.0,47,0.00,,,0.00,Rainwise IP-100,2013-10-03 22:13:00,
2013-10-03 16:18:00,48.0,28.0,27.32,NNW,337,7.0,12.0,45,0.00,,,0.00,Rainwise IP-100,2013-10-03 22:18:00,
2013-10-03 16:23:00,48.0,29.0,27.32,NNW,337,6.0,8.0,47,0.00,,,0.00,Rainwise IP-100,2013-10-03 22:23:00,
2013-10-03 16:28:00,48.0,28.0,27.33,NNW,337,6.0,6.0,45,0.00,,,0.00,Rainwise IP-100,2013-10-03 22:28:00,
2013-10-03 16:33:00,48.0,28.0,27.33,NNW,337,6.0,7.0,45,0.00,,,0.00,Rainwise IP-100,2013-10-03 22:33:00,
2013-10-03 16:38:00,49.0,28.0,27.33,NNW,337,2.0,12.0,44,0.00,,,0.00,Rainwise IP-100,2013-10-03 22:38:00,
2013-10-03 16:43:00,49.0,29.0,27.33,NNW,337,5.0,7.0,45,0.00,,,0.00,Rainwise IP-100,2013-10-03 22:43:00,
2013-10-03 16:48:00,49.0,28.0,27.33,West,270,7.0,10.0,43,0.00,,,0.00,Rainwise IP-100,2013-10-03 22:48:00,
2013-10-03 16:53:00,49.0,28.0,27.33,WNW,292,5.0,9.0,44,0.00,,,0.00,Rainwise IP-100,2013-10-03 22:53:00,
2013-10-03 16:58:00,49.0,28.0,27.33,WNW,292,2.0,12.0,44,0.00,,,0.00,Rainwise IP-100,2013-10-03 22:58:00,